When you browse on this site, cookies collect data to enhance your experience and personalize the content and advertising you see.
Visit our Privacy Policy to learn more. By continuing to use the site, you agree to this use of cookies and data.
  • In Spain
  • List of Countries
  • For 7 days
  • Water Temperature
  • Satellite Maps
  • Weather Map
  • Weather Widgets
  • user-avatar
    Login

    Hourly Weather Buenos Aires

    Today, 16 December, Sunday

    Time Temperature Precipitation Wind Pressure Humidity
    00:00 +21°C° 0 mm 3 mps 761 mmHg 57%
    01:00 +20°C° 0 mm 3 mps 761 mmHg 59%
    02:00 +20°C° 0 mm 4 mps 760 mmHg 61%
    03:00 +20°C° 0 mm 4 mps 760 mmHg 63%
    04:00 +19°C° 0 mm 3 mps 760 mmHg 65%
    05:00 +19°C° 0 mm 3 mps 761 mmHg 67%
    06:00 +21°C° 0 mm 3 mps 760 mmHg 62%
    07:00 +23°C° 0 mm 4 mps 760 mmHg 57%
    08:00 +25°C° 0 mm 4 mps 760 mmHg 52%
    09:00 +27°C° 0 mm 4 mps 760 mmHg 50%
    10:00 +30°C° 0 mm 4 mps 759 mmHg 47%
    11:00 +33°C° 0 mm 4 mps 759 mmHg 45%
    12:00 +34°C° 0 mm 4 mps 758 mmHg 44%
    13:00 +34°C° 0 mm 4 mps 758 mmHg 43%
    14:00 +35°C° 0 mm 4 mps 757 mmHg 43%
    15:00 +35°C° 0 mm 4 mps 757 mmHg 46%
    16:00 +34°C° 0 mm 4 mps 756 mmHg 50%
    17:00 +34°C° 0 mm 4 mps 756 mmHg 53%
    18:00 +32°C° 0 mm 4 mps 756 mmHg 58%
    19:00 +30°C° 0 mm 3 mps 756 mmHg 64%
    20:00 +29°C° 0 mm 3 mps 756 mmHg 69%
    21:00 +28°C° 1 mm 3 mps 756 mmHg 73%
    22:00 +27°C° 1 mm 3 mps 756 mmHg 77%
    23:00 +27°C° 1 mm 3 mps 756 mmHg 81%

    Tomorrow, 17 December, Monday

    Time Temperature Precipitation Wind Pressure Humidity
    00:00 +26°C° 1.4 mm 2 mps 756 mmHg 84%
    01:00 +26°C° 1.4 mm 2 mps 755 mmHg 87%
    02:00 +25°C° 1.4 mm 2 mps 755 mmHg 89%
    03:00 +25°C° 0.4 mm 2 mps 755 mmHg 90%
    04:00 +25°C° 0.4 mm 2 mps 755 mmHg 91%
    05:00 +25°C° 0.4 mm 2 mps 755 mmHg 92%
    06:00 +26°C° 2 mm 2 mps 756 mmHg 87%
    07:00 +27°C° 2 mm 3 mps 756 mmHg 82%
    08:00 +28°C° 2 mm 3 mps 757 mmHg 78%
    09:00 +28°C° 0.4 mm 5 mps 757 mmHg 75%
    10:00 +28°C° 0.4 mm 6 mps 757 mmHg 72%
    11:00 +28°C° 0.4 mm 7 mps 757 mmHg 69%
    12:00 +28°C° 0.1 mm 8 mps 757 mmHg 66%
    13:00 +28°C° 0.1 mm 8 mps 757 mmHg 63%
    14:00 +29°C° 0.1 mm 8 mps 757 mmHg 60%
    15:00 +27°C° 0.1 mm 8 mps 757 mmHg 63%
    16:00 +26°C° 0.1 mm 8 mps 757 mmHg 65%
    17:00 +24°C° 0.1 mm 8 mps 757 mmHg 68%
    18:00 +23°C° 0 mm 8 mps 758 mmHg 69%
    19:00 +22°C° 0 mm 8 mps 758 mmHg 70%
    20:00 +20°C° 0 mm 8 mps 758 mmHg 71%
    21:00 +20°C° 0 mm 7 mps 759 mmHg 73%
    22:00 +20°C° 0 mm 7 mps 760 mmHg 75%
    23:00 +20°C° 0 mm 7 mps 761 mmHg 77%

    Day after tomorrow, 18 December, Tuesday

    Time Temperature Precipitation Wind Pressure Humidity
    00:00 +20°C° 0.1 mm 7 mps 760 mmHg 77%
    01:00 +20°C° 0.1 mm 7 mps 760 mmHg 78%
    02:00 +18°C° 0.1 mm 7 mps 759 mmHg 78%
    03:00 +18°C° 0 mm 7 mps 759 mmHg 78%
    04:00 +18°C° 0 mm 7 mps 759 mmHg 78%
    05:00 +18°C° 0 mm 7 mps 760 mmHg 78%
    06:00 +18°C° 0 mm 7 mps 760 mmHg 78%
    07:00 +20°C° 0 mm 7 mps 760 mmHg 78%
    08:00 +20°C° 0 mm 7 mps 761 mmHg 79%
    09:00 +20°C° 0 mm 7 mps 761 mmHg 77%
    10:00 +21°C° 0 mm 6 mps 761 mmHg 76%
    11:00 +21°C° 0 mm 6 mps 761 mmHg 75%
    12:00 +22°C° 0 mm 6 mps 761 mmHg 73%
    13:00 +22°C° 0 mm 6 mps 761 mmHg 71%
    14:00 +23°C° 0 mm 6 mps 761 mmHg 70%
    15:00 +22°C° 0 mm 6 mps 761 mmHg 71%
    16:00 +22°C° 0 mm 5 mps 760 mmHg 72%
    17:00 +22°C° 0 mm 5 mps 760 mmHg 73%
    18:00 +21°C° 0 mm 5 mps 761 mmHg 75%
    19:00 +21°C° 0 mm 5 mps 761 mmHg 77%
    20:00 +20°C° 0 mm 5 mps 761 mmHg 79%
    21:00 +20°C° 0.1 mm 4 mps 761 mmHg 81%
    22:00 +20°C° 0.1 mm 4 mps 761 mmHg 83%
    23:00 +20°C° 0.1 mm 4 mps 761 mmHg 84%

    19 December, Wednesday

    Time Temperature Precipitation Wind Pressure Humidity
    00:00 +20°C° 0 mm 4 mps 761 mmHg 86%
    01:00 +20°C° 0 mm 3 mps 760 mmHg 87%
    02:00 +19°C° 0 mm 3 mps 759 mmHg 88%
    03:00 +19°C° 0 mm 3 mps 759 mmHg 88%
    04:00 +20°C° 0 mm 3 mps 759 mmHg 88%
    05:00 +20°C° 0 mm 3 mps 759 mmHg 89%
    06:00 +21°C° 0.1 mm 3 mps 759 mmHg 85%
    07:00 +22°C° 0.1 mm 3 mps 759 mmHg 82%
    08:00 +24°C° 0.1 mm 3 mps 759 mmHg 78%
    09:00 +25°C° 0.1 mm 3 mps 759 mmHg 71%
    10:00 +27°C° 0.1 mm 3 mps 758 mmHg 64%
    11:00 +28°C° 0.1 mm 3 mps 758 mmHg 57%
    12:00 +29°C° 0 mm 3 mps 757 mmHg 56%
    13:00 +29°C° 0 mm 3 mps 756 mmHg 54%
    14:00 +30°C° 0 mm 2 mps 756 mmHg 52%
    15:00 +30°C° 0 mm 2 mps 755 mmHg 53%
    16:00 +30°C° 0 mm 2 mps 755 mmHg 53%
    17:00 +30°C° 0 mm 2 mps 754 mmHg 54%
    18:00 +29°C° 0 mm 2 mps 754 mmHg 61%
    19:00 +27°C° 0 mm 3 mps 754 mmHg 67%
    20:00 +26°C° 0 mm 3 mps 754 mmHg 73%
    21:00 +25°C° 0 mm 3 mps 754 mmHg 77%
    22:00 +25°C° 0 mm 2 mps 754 mmHg 81%
    23:00 +25°C° 0 mm 2 mps 754 mmHg 85%

    20 December, Thursday

    Time Temperature Precipitation Wind Pressure Humidity
    00:00 +24°C° 0 mm 2 mps 754 mmHg 87%
    01:00 +24°C° 0 mm 2 mps 754 mmHg 89%
    02:00 +24°C° 0 mm 2 mps 754 mmHg 90%
    03:00 +23°C° 0 mm 2 mps 754 mmHg 91%
    04:00 +23°C° 0 mm 2 mps 754 mmHg 92%
    05:00 +23°C° 0 mm 1 mps 753 mmHg 93%
    06:00 +25°C° 0 mm 1 mps 753 mmHg 84%
    07:00 +27°C° 0 mm 1 mps 753 mmHg 76%
    08:00 +29°C° 0 mm 1 mps 754 mmHg 68%
    09:00 +30°C° 0.2 mm 2 mps 753 mmHg 65%
    10:00 +31°C° 0.2 mm 2 mps 753 mmHg 61%
    11:00 +32°C° 0.2 mm 2 mps 753 mmHg 57%
    12:00 +32°C° 0.5 mm 2 mps 753 mmHg 53%
    13:00 +34°C° 0.5 mm 2 mps 752 mmHg 50%
    14:00 +34°C° 0.5 mm 3 mps 752 mmHg 46%
    15:00 +34°C° 0.2 mm 3 mps 752 mmHg 48%
    16:00 +33°C° 0.2 mm 3 mps 752 mmHg 49%
    17:00 +33°C° 0.2 mm 3 mps 752 mmHg 50%
    18:00 +30°C° 0 mm 3 mps 752 mmHg 52%
    19:00 +28°C° 0 mm 3 mps 753 mmHg 54%
    20:00 +27°C° 0 mm 3 mps 753 mmHg 55%
    21:00 +26°C° 0 mm 3 mps 754 mmHg 55%
    22:00 +25°C° 0 mm 3 mps 754 mmHg 54%
    23:00 +24°C° 0 mm 3 mps 754 mmHg 54%

    21 December, Friday

    Time Temperature Precipitation Wind Pressure Humidity
    00:00 +22°C° 0 mm 3 mps 754 mmHg 56%
    01:00 +21°C° 0 mm 2 mps 754 mmHg 59%
    02:00 +21°C° 0 mm 2 mps 754 mmHg 61%
    03:00 +20°C° 0 mm 2 mps 754 mmHg 63%
    04:00 +21°C° 0 mm 1 mps 754 mmHg 65%
    05:00 +20°C° 0 mm 1 mps 755 mmHg 68%
    06:00 +22°C° 0 mm 1 mps 755 mmHg 62%
    07:00 +24°C° 0 mm 1 mps 755 mmHg 57%
    08:00 +25°C° 0 mm 0 mps 755 mmHg 51%
    09:00 +28°C° 0 mm 1 mps 755 mmHg 44%
    10:00 +30°C° 0 mm 1 mps 755 mmHg 37%
    11:00 +31°C° 0 mm 2 mps 755 mmHg 30%
    12:00 +32°C° 0 mm 2 mps 755 mmHg 28%
    13:00 +34°C° 0 mm 3 mps 754 mmHg 27%
    14:00 +34°C° 0 mm 3 mps 754 mmHg 25%
    15:00 +34°C° 0 mm 2 mps 754 mmHg 26%
    16:00 +34°C° 0 mm 2 mps 754 mmHg 28%
    17:00 +32°C° 0 mm 2 mps 754 mmHg 29%
    18:00 +31°C° 0 mm 2 mps 754 mmHg 33%
    19:00 +29°C° 0 mm 2 mps 754 mmHg 37%
    20:00 +27°C° 0 mm 2 mps 754 mmHg 41%
    21:00 +26°C° 0 mm 2 mps 755 mmHg 42%
    22:00 +26°C° 0 mm 3 mps 755 mmHg 43%
    23:00 +25°C° 0 mm 4 mps 755 mmHg 44%
    Show more